Asheville, NC

10:07 PM EDT on July 23, 2019 (GMT -0400)
Asheville Regional

Weather History for KAVL - May, 2019

Change the Weather History Date:

Monday, May 20, 2019

  Actual Average Record
Temperature  
Mean Temperature 72 °F 64 °F  
Max Temperature 84 °F 76 °F 91 °F (1941)
Min Temperature 60 °F 53 °F 36 °F (2002)
Degree Days  
Heating Degree Days 0 3  
Month to date heating degree days 25 87  
Since 1 July heating degree days 3552 4159  
Cooling Degree Days 7 2  
Month to date cooling degree days 60 24  
Year to date cooling degree days 77 32  
Growing Degree Days 22 (Base 50)    
Moisture  
Dew Point 58 °F    
Average Humidity 67    
Maximum Humidity 97    
Minimum Humidity 36    
Precipitation  
Precipitation 0.00 in 0.12 in 2.58 in (1909)
Month to date precipitation 3.35 2.31  
Year to date precipitation 27.14 16.90  
Snow  
Snow 0.00 in 0.00 in T in (1894)
Month to date snowfall 0.0 0.0  
Since 1 July snowfall 11.4 9.9  
Snow Depth 0.00 in    
Sea Level Pressure  
Sea Level Pressure 29.98 in    
Wind  
Wind Speed 5 mph (NNW)    
Max Wind Speed 18 mph    
Max Gust Speed 23 mph    
Visibility 9 miles    
Events      
T = Trace of Precipitation, MM = Missing Value Source: NWS Daily Summary

Daily Weather History Graph

Daily Weather History Graph

Search for Another Location

Airport or City:

Astronomy

May. 20, 2019 Rise Set
Actual Time 6:22 AM EDT 8:31 PM EDT
Civil Twilight 5:53 AM EDT 9:00 PM EDT
Nautical Twilight 5:18 AM EDT 9:35 PM EDT
Astronomical Twilight 4:40 AM EDT 10:13 PM EDT
Moon 10:30 PM EDT (5/20) 7:50 AM EDT (5/20)
Length of Visible Light 15h 06m
Length of Day
14h 09m
Waning Gibbous, 96% of the Moon is Illuminated
May 20
Waning Gibbous
May 26
Last Quarter
Jun 3
New
Jun 10
First Quarter
Jun 17
Full

Hourly Weather History & Observations

Time (EDT) Temp. Heat Index Dew Point Humidity Pressure Visibility Wind Dir Wind Speed Gust Speed Precip Events Conditions
12:54 AM 66.9 °F - 61.0 °F 81% 29.99 in 10.0 mi Calm Calm - N/A   Clear
1:54 AM 64.9 °F - 61.0 °F 87% 29.99 in 10.0 mi Calm Calm - N/A   Clear
2:54 AM 63.0 °F - 60.1 °F 90% 29.99 in 8.0 mi Calm Calm - N/A   Clear
3:54 AM 62.1 °F - 59.0 °F 90% 29.99 in 7.0 mi SSW 3.5 mph - N/A   Clear
4:54 AM 61.0 °F - 59.0 °F 93% 29.98 in 7.0 mi Calm Calm - N/A   Clear
5:54 AM 60.1 °F - 57.9 °F 93% 29.99 in 7.0 mi SE 3.5 mph - N/A   Clear
6:54 AM 60.1 °F - 57.0 °F 90% 30.01 in 7.0 mi Calm Calm - N/A   Clear
7:54 AM 62.1 °F - 59.0 °F 90% 30.02 in 7.0 mi SSE 3.5 mph - N/A   Clear
8:54 AM 66.9 °F - 60.1 °F 79% 30.03 in 10.0 mi Calm Calm - N/A   Scattered Clouds
9:54 AM 72.0 °F - 61.0 °F 68% 30.02 in 10.0 mi Calm Calm - N/A   Mostly Cloudy
10:54 AM 75.0 °F - 61.0 °F 62% 30.01 in 10.0 mi SE 3.5 mph - N/A   Clear
11:54 AM 77.0 °F - 57.9 °F 52% 30.01 in 10.0 mi SW 3.5 mph - N/A   Mostly Cloudy
12:54 PM 79.0 °F - 59.0 °F 50% 29.99 in 10.0 mi Variable 4.6 mph - N/A   Scattered Clouds
1:54 PM 79.0 °F - 57.9 °F 48% 29.97 in 10.0 mi NNW 3.5 mph - N/A   Mostly Cloudy
2:54 PM 82.0 °F 82.1 °F 59.0 °F 45% 29.96 in 10.0 mi North 11.5 mph 19.6 mph N/A   Mostly Cloudy
3:54 PM 82.0 °F 82.0 °F 57.9 °F 44% 29.93 in 10.0 mi North 13.8 mph - N/A   Clear
4:54 PM 82.0 °F 81.7 °F 57.0 °F 42% 29.93 in 10.0 mi North 12.7 mph - N/A   Clear
5:54 PM 81.0 °F 80.5 °F 54.0 °F 39% 29.93 in 10.0 mi NNW 13.8 mph - N/A   Clear
6:54 PM 80.1 °F - 52.0 °F 38% 29.93 in 10.0 mi North 11.5 mph - N/A   Clear
7:54 PM 77.0 °F - 54.0 °F 45% 29.95 in 10.0 mi NNW 13.8 mph - N/A   Clear
8:54 PM 75.0 °F - 54.0 °F 48% 29.96 in 10.0 mi North 10.4 mph - N/A   Clear
9:54 PM 72.0 °F - 55.0 °F 55% 29.97 in 10.0 mi North 6.9 mph - N/A   Unknown
10:54 PM 70.0 °F - 54.0 °F 57% 29.97 in 10.0 mi Calm Calm - N/A   Clear
11:54 PM 66.0 °F - 55.9 °F 70% 29.97 in 10.0 mi Calm Calm - N/A   Clear